Location: Buchloe
(48.0161°N, 10.7316°E)
Time: 03:31:43
(UTC+02:00)

ISS - Pass Details

Date: 10 July 2025
Orbit: 413 x 417 km, 51.6° (Epoch: 12 July)

Event Time Altitude Azimuth Distance (km) Brightness Sun altitude
Rises 04:25:29 0° 287° (WNW) 2,357 -0.2 -8.7°
Reaches altitude 10° 04:27:56 10° 269° (W) 1,491 -1.4 -8.4°
Maximum altitude 04:30:26 20° 221° (SW) 1,042 -2.4 -8.1°
Drops below altitude 10° 04:32:55 10° 173° (S) 1,485 -1.3 -7.8°
Sets 04:35:22 0° 155° (SSE) 2,344 -0.2 -7.6°
